Weather History for KMTJ - April, 2014

Change the Weather History Date:

Saturday, April 5, 2014

  Actual Average Record
Temperature  
Mean Temperature 45 °F 46 °F  
Max Temperature 56 °F 60 °F 72 °F (2002)
Min Temperature 34 °F 33 °F 24 °F (2009)
Degree Days  
Heating Degree Days 20 19  
Month to date heating degree days 107 97  
Since 1 July heating degree days 5509 5553  
Cooling Degree Days 0 0  
Month to date cooling degree days 0 0  
Year to date cooling degree days 0 0  
Moisture  
Dew Point 23 °F    
Average Humidity 49    
Maximum Humidity 76    
Minimum Humidity 22    
Precipitation  
Precipitation T in 0.04 in 0.46 in (2004)
Month to date precipitation 0.01 0.16  
Year to date precipitation 1.67 2.41  
Sea Level Pressure  
Sea Level Pressure 29.82 in    
Wind  
Wind Speed 8 mph (SSE)    
Max Wind Speed 23 mph    
Max Gust Speed 29 mph    
Visibility 10 miles    
Events      
T = Trace of Precipitation, MM = Missing Value Source: NWS Daily Summary

Daily Weather History Graph

Daily Weather History Graph

Search for Another Location

Airport or City:

Trip Planner

Search our weather history database for the weather conditions in past years. The results will help you decide how hot, cold, wet, or windy it might be!

Date:

Astronomy

Apr. 05, 2014 Rise Set
Actual Time 6:50 AM MDT 7:38 PM MDT
Civil Twilight 6:23 AM MDT 8:05 PM MDT
Nautical Twilight 5:51 AM MDT 8:37 PM MDT
Astronomical Twilight 5:18 AM MDT 9:10 PM MDT
Moon 11:03 AM MDT (4/5) 12:48 AM MDT (4/5)
Length of Visible Light 13h 42m
Length of Day
12h 48m
Waxing Crescent, 35% of the Moon is Illuminated
Apr 5
Waxing Crescent
Apr 7
First Quarter
Apr 15
Full
Apr 22
Last Quarter
Apr 29
New

Hourly Weather History & Observations

Time (MDT) Temp. Windchill Dew Point Humidity Pressure Visibility Wind Dir Wind Speed Gust Speed Precip Events Conditions
12:53 AM 43.0 °F 40.3 °F 21.9 °F 43% 29.86 in 10.0 mi South 4.6 mph - N/A   Mostly Cloudy
1:53 AM 39.9 °F 36.7 °F 21.9 °F 49% 29.85 in 10.0 mi NW 4.6 mph - N/A   Mostly Cloudy
2:53 AM 36.0 °F 32.1 °F 21.9 °F 57% 29.86 in 10.0 mi SE 4.6 mph - N/A   Partly Cloudy
3:53 AM 35.1 °F 32.2 °F 21.9 °F 59% 29.84 in 10.0 mi SSE 3.5 mph - N/A   Clear
4:53 AM 35.1 °F 30.1 °F 23.0 °F 61% 29.83 in 10.0 mi ESE 5.8 mph - N/A   Clear
5:53 AM 35.1 °F 28.6 °F 24.1 °F 64% 29.83 in 10.0 mi SSE 8.1 mph - N/A   Mostly Cloudy
6:53 AM 36.0 °F 29.6 °F 23.0 °F 59% 29.83 in 10.0 mi SE 8.1 mph - N/A   Clear
7:53 AM 37.9 °F 31.5 °F 23.0 °F 55% 29.84 in 10.0 mi SE 9.2 mph - N/A   Clear
8:53 AM 43.0 °F 38.8 °F 21.9 °F 43% 29.83 in 10.0 mi SSE 6.9 mph - N/A   Clear
9:53 AM 46.0 °F - 21.0 °F 37% 29.83 in 10.0 mi Calm Calm - N/A   Clear
10:53 AM 48.9 °F - 19.9 °F 32% 29.81 in 10.0 mi Calm Calm - N/A   Clear
11:53 AM 51.1 °F - 19.9 °F 29% 29.78 in 10.0 mi North 4.6 mph - N/A   Clear
12:53 PM 52.0 °F - 19.0 °F 27% 29.75 in 10.0 mi Variable 3.5 mph - N/A   Clear
1:53 PM 55.9 °F - 18.0 °F 23% 29.73 in 10.0 mi West 12.7 mph - N/A   Clear
2:12 PM 53.1 °F - 19.9 °F 27% 29.84 in 10.0 mi WSW 10.4 mph - N/A   Clear
2:53 PM 54.0 °F - 19.0 °F 25% 29.74 in 10.0 mi SSW 8.1 mph - N/A   Partly Cloudy
3:53 PM 54.0 °F - 18.0 °F 24% 29.73 in 10.0 mi Variable 5.8 mph - N/A   Overcast
4:53 PM 50.0 °F - 25.0 °F 38% 29.76 in 10.0 mi SE 9.2 mph - 0.00 in   Overcast
5:53 PM 50.0 °F - 25.0 °F 38% 29.78 in 10.0 mi East 8.1 mph - N/A   Overcast
6:53 PM 48.0 °F - 27.0 °F 44% 29.83 in 10.0 mi West 19.6 mph - N/A   Overcast
7:53 PM 45.0 °F 40.1 °F 28.9 °F 53% 29.83 in 10.0 mi South 9.2 mph - N/A   Overcast
8:53 PM 43.0 °F 38.2 °F 30.0 °F 60% 29.86 in 10.0 mi ESE 8.1 mph - N/A   Mostly Cloudy
9:53 PM 41.0 °F 32.8 °F 30.9 °F 67% 29.87 in 10.0 mi SSE 16.1 mph - N/A   Clear
10:53 PM 39.9 °F 32.1 °F 30.9 °F 70% 29.87 in 10.0 mi SSE 13.8 mph - N/A   Clear
11:53 PM 37.9 °F 32.7 °F 30.0 °F 73% 29.89 in 10.0 mi SSE 6.9 mph - N/A   Clear